• In Uzbekistan
  • List of Countries
  • For 7 days
  • Water Temperature
  • Satellite Maps
  • Weather Map
  • Weather Widgets
  • user-avatar
    Login

    Hourly Weather Bad Salzhausen

    Today, 21 February, Wednesday

    Time Temperature Precipitation Wind Pressure Humidity
    00:00 -3°C° 0 mm 2 mps 749 mmHg 81%
    01:00 -3°C° 0 mm 2 mps 749 mmHg 82%
    02:00 -3°C° 0 mm 2 mps 749 mmHg 82%
    03:00 -3°C° 0 mm 2 mps 749 mmHg 83%
    04:00 -3°C° 0 mm 2 mps 749 mmHg 84%
    05:00 -3°C° 0 mm 2 mps 750 mmHg 84%
    06:00 -4°C° 0 mm 2 mps 750 mmHg 84%
    07:00 -4°C° 0 mm 3 mps 750 mmHg 85%
    08:00 -2°C° 0 mm 3 mps 750 mmHg 79%
    09:00 -1°C° 0 mm 3 mps 750 mmHg 73%
    10:00 -2°C° 0 mm 4 mps 750 mmHg 67%
    11:00 -1°C° 0 mm 4 mps 750 mmHg 62%
    12:00 0°C° 0 mm 4 mps 750 mmHg 58%
    13:00 +1°C° 0 mm 4 mps 750 mmHg 53%
    14:00 +1°C° 0 mm 4 mps 750 mmHg 54%
    15:00 +1°C° 0 mm 4 mps 750 mmHg 55%
    16:00 +1°C° 0 mm 4 mps 749 mmHg 56%
    17:00 0°C° 0 mm 4 mps 749 mmHg 61%
    18:00 0°C° 0 mm 3 mps 749 mmHg 66%
    19:00 -1°C° 0 mm 3 mps 750 mmHg 71%
    20:00 -2°C° 0 mm 3 mps 750 mmHg 72%
    21:00 -2°C° 0 mm 3 mps 750 mmHg 73%
    22:00 -2°C° 0 mm 3 mps 750 mmHg 73%
    23:00 -2°C° 0 mm 3 mps 750 mmHg 73%

    Tomorrow, 22 February, Thursday

    Time Temperature Precipitation Wind Pressure Humidity
    00:00 -2°C° 0 mm 3 mps 750 mmHg 74%
    01:00 -4°C° 0 mm 4 mps 750 mmHg 74%
    02:00 -4°C° 0 mm 4 mps 750 mmHg 73%
    03:00 -4°C° 0 mm 4 mps 750 mmHg 72%
    04:00 -4°C° 0 mm 4 mps 750 mmHg 71%
    05:00 -4°C° 0 mm 4 mps 750 mmHg 69%
    06:00 -4°C° 0 mm 4 mps 750 mmHg 68%
    07:00 -4°C° 0 mm 4 mps 750 mmHg 66%
    08:00 -5°C° 0 mm 5 mps 750 mmHg 60%
    09:00 -4°C° 0 mm 5 mps 750 mmHg 54%
    10:00 -3°C° 0 mm 6 mps 750 mmHg 49%
    11:00 -2°C° 0 mm 6 mps 750 mmHg 46%
    12:00 -2°C° 0 mm 6 mps 750 mmHg 44%
    13:00 -1°C° 0 mm 6 mps 750 mmHg 41%
    14:00 -1°C° 0 mm 6 mps 749 mmHg 42%
    15:00 -1°C° 0 mm 6 mps 749 mmHg 43%
    16:00 -1°C° 0 mm 6 mps 749 mmHg 44%
    17:00 -1°C° 0 mm 5 mps 749 mmHg 49%
    18:00 -2°C° 0 mm 4 mps 749 mmHg 54%
    19:00 -3°C° 0 mm 4 mps 749 mmHg 59%
    20:00 -3°C° 0 mm 4 mps 750 mmHg 60%
    21:00 -4°C° 0 mm 4 mps 750 mmHg 61%
    22:00 -4°C° 0 mm 4 mps 750 mmHg 63%
    23:00 -4°C° 0 mm 4 mps 750 mmHg 62%

    Day after tomorrow, 23 February, Friday

    Time Temperature Precipitation Wind Pressure Humidity
    00:00 -4°C° 0 mm 4 mps 750 mmHg 61%
    01:00 -4°C° 0 mm 4 mps 749 mmHg 60%
    02:00 -5°C° 0 mm 4 mps 749 mmHg 60%
    03:00 -5°C° 0 mm 4 mps 749 mmHg 59%
    04:00 -5°C° 0 mm 4 mps 749 mmHg 59%
    05:00 -5°C° 0 mm 4 mps 749 mmHg 58%
    06:00 -5°C° 0 mm 4 mps 749 mmHg 58%
    07:00 -7°C° 0 mm 5 mps 749 mmHg 58%
    08:00 -6°C° 0 mm 5 mps 749 mmHg 53%
    09:00 -5°C° 0 mm 5 mps 750 mmHg 49%
    10:00 -5°C° 0 mm 5 mps 750 mmHg 44%
    11:00 -2°C° 0 mm 5 mps 750 mmHg 40%
    12:00 -1°C° 0 mm 5 mps 749 mmHg 36%
    13:00 0°C° 0 mm 5 mps 749 mmHg 32%
    14:00 0°C° 0 mm 5 mps 749 mmHg 33%
    15:00 0°C° 0 mm 5 mps 749 mmHg 34%
    16:00 0°C° 0 mm 5 mps 749 mmHg 34%
    17:00 -1°C° 0 mm 5 mps 749 mmHg 39%
    18:00 -2°C° 0 mm 5 mps 749 mmHg 43%
    19:00 -4°C° 0 mm 5 mps 749 mmHg 47%
    20:00 -4°C° 0 mm 5 mps 749 mmHg 48%
    21:00 -5°C° 0 mm 5 mps 749 mmHg 50%
    22:00 -5°C° 0 mm 5 mps 750 mmHg 51%
    23:00 -5°C° 0 mm 5 mps 750 mmHg 51%

    24 February, Saturday

    Time Temperature Precipitation Wind Pressure Humidity
    00:00 -5°C° 0 mm 5 mps 750 mmHg 51%
    01:00 -5°C° 0 mm 5 mps 750 mmHg 50%
    02:00 -5°C° 0 mm 5 mps 749 mmHg 49%
    03:00 -5°C° 0 mm 5 mps 749 mmHg 48%
    04:00 -5°C° 0 mm 5 mps 749 mmHg 47%
    05:00 -5°C° 0 mm 5 mps 749 mmHg 44%
    06:00 -5°C° 0 mm 5 mps 749 mmHg 42%
    07:00 -5°C° 0 mm 5 mps 750 mmHg 40%
    08:00 -4°C° 0 mm 6 mps 750 mmHg 37%
    09:00 -3°C° 0 mm 6 mps 750 mmHg 35%
    10:00 -2°C° 0 mm 7 mps 750 mmHg 33%
    11:00 -1°C° 0 mm 7 mps 750 mmHg 34%
    12:00 0°C° 0 mm 7 mps 750 mmHg 36%
    13:00 +2°C° 0 mm 7 mps 750 mmHg 38%
    14:00 +2°C° 0 mm 7 mps 750 mmHg 40%
    15:00 0°C° 0 mm 7 mps 750 mmHg 43%
    16:00 0°C° 0 mm 7 mps 750 mmHg 46%
    17:00 -1°C° 0 mm 7 mps 750 mmHg 46%
    18:00 -2°C° 0 mm 7 mps 750 mmHg 46%
    19:00 -4°C° 0 mm 6 mps 751 mmHg 45%
    20:00 -4°C° 0 mm 6 mps 751 mmHg 43%
    21:00 -5°C° 0 mm 6 mps 751 mmHg 40%
    22:00 -5°C° 0 mm 6 mps 752 mmHg 37%
    23:00 -6°C° 0 mm 6 mps 752 mmHg 37%

    25 February, Sunday

    Time Temperature Precipitation Wind Pressure Humidity
    00:00 -6°C° 0 mm 6 mps 752 mmHg 36%
    01:00 -6°C° 0 mm 6 mps 752 mmHg 35%
    02:00 -8°C° 0 mm 6 mps 752 mmHg 36%
    03:00 -8°C° 0 mm 6 mps 752 mmHg 36%
    04:00 -8°C° 0 mm 6 mps 752 mmHg 37%
    05:00 -9°C° 0 mm 6 mps 753 mmHg 37%
    06:00 -9°C° 0 mm 6 mps 753 mmHg 38%
    07:00 -9°C° 0 mm 6 mps 753 mmHg 39%
    08:00 -9°C° 0 mm 6 mps 753 mmHg 38%
    09:00 -8°C° 0 mm 6 mps 754 mmHg 36%
    10:00 -8°C° 0 mm 6 mps 754 mmHg 35%
    11:00 -6°C° 0 mm 6 mps 754 mmHg 32%
    12:00 -5°C° 0 mm 6 mps 754 mmHg 29%
    13:00 -4°C° 0 mm 6 mps 754 mmHg 26%
    14:00 -4°C° 0 mm 6 mps 754 mmHg 26%
    15:00 -5°C° 0 mm 6 mps 753 mmHg 25%
    16:00 -5°C° 0 mm 6 mps 753 mmHg 25%
    17:00 -5°C° 0 mm 6 mps 754 mmHg 29%
    18:00 -6°C° 0 mm 5 mps 754 mmHg 32%
    19:00 -7°C° 0 mm 5 mps 754 mmHg 36%
    20:00 -8°C° 0 mm 5 mps 754 mmHg 37%
    21:00 -8°C° 0 mm 5 mps 754 mmHg 39%
    22:00 -8°C° 0 mm 5 mps 755 mmHg 40%
    23:00 -8°C° 0 mm 4 mps 755 mmHg 40%

    26 February, Monday

    Time Temperature Precipitation Wind Pressure Humidity
    00:00 -9°C° 0 mm 4 mps 755 mmHg 40%
    01:00 -9°C° 0 mm 4 mps 755 mmHg 40%
    02:00 -9°C° 0 mm 4 mps 754 mmHg 40%
    03:00 -10°C° 0 mm 4 mps 754 mmHg 40%
    04:00 -10°C° 0 mm 4 mps 754 mmHg 40%
    05:00 -10°C° 0 mm 4 mps 754 mmHg 41%
    06:00 -10°C° 0 mm 4 mps 754 mmHg 41%
    07:00 -11°C° 0 mm 4 mps 754 mmHg 42%
    08:00 -10°C° 0 mm 4 mps 754 mmHg 41%
    09:00 -9°C° 0 mm 4 mps 755 mmHg 39%
    10:00 -10°C° 0 mm 5 mps 755 mmHg 37%
    11:00 -8°C° 0 mm 5 mps 754 mmHg 35%
    12:00 -7°C° 0 mm 5 mps 754 mmHg 33%
    13:00 -6°C° 0 mm 5 mps 754 mmHg 31%
    14:00 -6°C° 0 mm 5 mps 753 mmHg 31%
    15:00 -6°C° 0 mm 5 mps 753 mmHg 31%
    16:00 -6°C° 0 mm 5 mps 752 mmHg 31%
    17:00 -7°C° 0 mm 4 mps 752 mmHg 34%
    18:00 -7°C° 0 mm 4 mps 752 mmHg 38%
    19:00 -7°C° 0 mm 3 mps 752 mmHg 41%
    20:00 -7°C° 0 mm 3 mps 752 mmHg 42%
    21:00 -8°C° 0 mm 3 mps 752 mmHg 43%
    22:00 -8°C° 0 mm 3 mps 752 mmHg 44%
    23:00 -8°C° 0 mm 3 mps 752 mmHg 45%
    Show more